AirNav   ATP
 
 1157 users online  

T79 Skyway Manor Airport
Pearland, Texas, USA

GOING TO PEARLAND?


FAA INFORMATION EFFECTIVE 11 OCTOBER 2018

Location

FAA Identifier: T79
Lat/Long: 29-33-20.8420N / 095-19-40.7750W
29-33.347367N / 095-19.679583W
29.5557894 / -95.3279931
(estimated)
Elevation: 55 ft. / 17 m (estimated)
Variation: 06E (1985)
From city: 3 miles W of PEARLAND, TX
Time zone: UTC -5 (UTC -6 during Standard Time)
Zip code: 77584

Airport Operations

Airport use: Open to the public
Activation date: 02/1971
Control tower: no
ARTCC: HOUSTON CENTER
FSS: MONTGOMERY COUNTY FLIGHT SERVICE STATION
NOTAMs facility: CXO (NOTAM-D service available)
Attendance: IREG
Wind indicator: yes
Segmented circle: no

Airport Communications

CTAF: 122.9
WX ASOS at LVJ (5 nm SE): 118.525 (281-992-1853)
WX ASOS at HOU (6 nm NE): PHONE 713-847-1462
WX AWOS-3 at AXH (8 nm W): 123.625 (281-431-6572)
WX ASOS at SGR (18 nm W): 118.125 (281-242-7605)

Nearby radio navigation aids

VOR radial/distance  VOR name  Freq  Var
HUBr199/6.6HOBBY VOR/DME117.1005E
IAHr173/24.1HUMBLE VORTAC116.6005E
VUHr300/29.6SCHOLES VOR/DME113.0006E
MHFr264/30.3TRINITY VOR/DME113.6007E

 
NDB name  Hdg/Dist  Freq  Var  ID
NIXIN188/26.932605EBVP -... ...- .--.
GALVESTON286/32.720608EGLS --. .-.. ...

Airport Services

Runway Information

Runway 17/35

Dimensions: 2550 x 70 ft. / 777 x 21 m
Surface: turf, in good condition
SOFT WHEN WET.
RUNWAY 17  RUNWAY 35
Traffic pattern: leftleft
Obstructions: 35 ft. pline, marked, 110 ft. from runway, 3:1 slope to clear50 ft. trees, 35 ft. right of centerline
ALSO 35 FT UNMARKED PLINE 100 FT 0B APCH RATIO 2:1.

Airport Ownership and Management from official FAA records

Ownership: Privately-owned
Owner: SKYWAY MANOR
2736 PIPER ROAD
PEARLAND, TX 77584
Phone (281) 997-7122
Manager: BERT WITHERS
2825 PIPER ROAD
PEARLAND, TX 77584
Phone (281) 997-7122
OWNER'S ASSOCIATION CONTACT

Airport Operational Statistics

Aircraft based on the field: 5
Single engine airplanes: 4
Multi engine airplanes: 1
    
Aircraft operations: avg 42/month *
60% transient general aviation
40% local general aviation
* for 12-month period ending 31 December 2016

Additional Remarks

NUMEROUS VIOLATIONS OF PRIM SFC ENTIRE RWY LGTH; BLDGS, FENCES, TREES & BRUSH.
NO TOUCH AND GO LANDINGS
FOR CD CTC HOUSTON APCH AT 281-443-5844 TO CNL IFR CALL 281-443-5888.

Instrument Procedures

There are no published instrument procedures at T79.

Some nearby airports with instrument procedures:

KLVJ - Pearland Regional Airport (5 nm SE)
KHOU - William P Hobby Airport (6 nm NE)
KAXH - Houston Southwest Airport (8 nm W)
KEFD - Ellington Airport (9 nm E)
T41 - La Porte Municipal Airport (15 nm NE)
KSGR - Sugar Land Regional Airport (18 nm W)
 
Loc | Ops | Rwys | IFR | FBO | Links
Com | Nav | Svcs | Stats | Notes


 
Area around T79 (Skyway Manor Airport)
 
Road maps at: MapQuest Bing Google
 
Aerial photo
No photo
 
Sectional chart

 
Airport distance calculator
Flying to Skyway Manor Airport? Find the distance to fly.

From to T79

Sunrise and sunset
Times for 17-Oct-2018
 Local
(UTC-5)
 Zulu
(UTC)
Morning civil twilight07:0112:01
Sunrise07:2512:25
Sunset18:4823:48
Evening civil twilight19:1200:12

Current date and time
Zulu (UTC)  17-Oct-2018 13:08:42
Local (UTC-5)  17-Oct-2018 08:08:42
 
METAR
KLVJ 
5nm SE 
171253Z AUTO 35008KT 10SM OVC007 15/14 A3018 RMK AO2 SLP218 T01500144
KHOU 
5nm NE 
171253Z 35011KT 10SM OVC008 14/13 A3017 RMK AO2 SLP221 T01440128
KAXH 
8nm W 
171255Z AUTO 01005KT 10SM OVC004 13/13 A3019 RMK AO2 T01330132
KEFD 
9nm E 
171150Z 34009KT 8SM OVC007 14/13 A3017
KSGR 
17nm W 
171253Z AUTO 01009KT 4SM BR OVC005 14/13 A3018 RMK AO2 SLP221 T01440133
TAF
KHOU 
5nm NE 
171159Z 1712/1812 01011KT 4SM BR OVC006 TEMPO 1712/1716 2SM -DZ BR OVC003 FM171800 01012KT P6SM OVC008 FM180600 01012KT P6SM OVC006
KEFD 
9nm E 
171200Z 1712/1818 01012KT 8000 -SHRA OVC008 QNH3012INS TX18/1719Z TN13/1712Z
KSGR 
17nm W 
171120Z 1712/1812 01009KT 6SM BR OVC005 TEMPO 1712/1716 3SM -DZ BR OVC003 FM171700 01012KT P6SM OVC008 FM180600 01011KT P6SM OVC006
NOTAMs
Click for the latest NOTAMs
NOTAMs are issued by the DoD/FAA and will open in a separate window not controlled by AirNav.

 

 
 

Would you like to see your business listed on this page?

 If your business provides an interesting product or service to pilots, flight crews, aircraft, or users of the Skyway Manor Airport, you should consider listing it here.  To start the listing process, click on the button below
 
Add a business
 

Other Pages about Skyway Manor Airport

Update a link
 
Copyright © AirNav, LLC. All rights reserved. Privacy Policy  Contact